This is the latest recevied weather packets stored in our database for station/object OK2ILA-10. If no packets are shown the sender has not sent any weather packets the latest 10 day(s).
| Time | Temp. | Humidity | Pressure | Rain* | Wind** | Luminosity | Snow |
|---|---|---|---|---|---|---|---|
| 1787909501 | 26.11° C | 46% | 1018.4 hPa | - | - | - | - |
| 1787908905 | 26.11° C | 46% | 1018.3 hPa | - | - | - | - |
| 1787908901 | 26.11° C | 46% | 1018.3 hPa | - | - | - | - |
| 1787908305 | 25° C | 46% | 1018.6 hPa | - | - | - | - |
| 1787908300 | 25° C | 46% | 1018.6 hPa | - | - | - | - |
| 1787907704 | 25° C | 46% | 1018.6 hPa | - | - | - | - |
| 1787907700 | 25° C | 46% | 1018.6 hPa | - | - | - | - |
| 1787907104 | 26.11° C | 44% | 1018.5 hPa | - | - | - | - |
| 1787907100 | 26.11° C | 44% | 1018.5 hPa | - | - | - | - |
| 1787906504 | 27.22° C | 42% | 1018.7 hPa | - | - | - | - |
| 1787906500 | 27.22° C | 42% | 1018.7 hPa | - | - | - | - |
| 1787905904 | 27.22° C | 43% | 1018.7 hPa | - | - | - | - |
| 1787905900 | 27.22° C | 43% | 1018.7 hPa | - | - | - | - |
| 1787905304 | 27.22° C | 43% | 1018.9 hPa | - | - | - | - |
| 1787905299 | 27.22° C | 43% | 1018.9 hPa | - | - | - | - |
| 1787904710 | 26.67° C | 43% | 1019.1 hPa | - | - | - | - |
| 1787904699 | 26.67° C | 43% | 1019.1 hPa | - | - | - | - |
| 1787904103 | 26.11° C | 44% | 1019.2 hPa | - | - | - | - |
| 1787904099 | 26.11° C | 44% | 1019.2 hPa | - | - | - | - |
| 1787903503 | 27.22° C | 43% | 1019.1 hPa | - | - | - | - |
| 1787903499 | 27.22° C | 43% | 1019.1 hPa | - | - | - | - |
| 1787902903 | 26.67° C | 43% | 1019.1 hPa | - | - | - | - |
| 1787902899 | 26.67° C | 43% | 1019.1 hPa | - | - | - | - |
| 1787902309 | 27.22° C | 43% | 1019.1 hPa | - | - | - | - |
| 1787902298 | 27.22° C | 43% | 1019.1 hPa | - | - | - | - |
* Rain since midnight (hover to see other rain measurements)
** Current wind speed in m/s (hover to see current wind gust speed)